|
. Choisissez la date dans le calendrier, puis cliquez sur afficher. . Par défaut, c'est la date du jour qui s'affiche. . Début de l'historique journalier le 1 janvier 2011. Infos Historique
|
|
Tout l'historique du 01 Septembre 2026
Rapport généré le mardi 01 Septembre 2026 à 07h46
|
| Heure | Temp ext | Hum ext | Pt de rosée | Pluie | Int pluie | Pression | Taux presion | Rad solaire | Vit vent | Dir vent |
| 00:00 | °C | % | °C | 0.0 mm | 0.0 mm/h | hPa | hPa/3h | 0 W/m² | km/h | SSW |
| 00:05 | °C | % | °C | 0.0 mm | 0.0 mm/h | hPa | hPa/3h | 0 W/m² | km/h | SSW |
| 00:10 | °C | % | 12.3 °C | 0.0 mm | 0.0 mm/h | hPa | 1.3 hPa/3h | 0 W/m² | 4.8 km/h | SSW |
| 00:15 | 13.6 °C | % | 12.2 °C | 0.0 mm | 0.0 mm/h | 1020.5 hPa | 1.2 hPa/3h | 0 W/m² | 3.2 km/h | SSW |
| 00:20 | 13.4 °C | % | 12.0 °C | 0.0 mm | 0.0 mm/h | 1020.5 hPa | hPa/3h | 0 W/m² | 0.0 km/h | --- |
| 00:25 | 13.3 °C | % | 11.9 °C | 0.0 mm | 0.0 mm/h | 1020.4 hPa | hPa/3h | 0 W/m² | 0.0 km/h | --- |
| 00:30 | 13.1 °C | 92 % | 11.8 °C | 0.0 mm | 0.0 mm/h | 1020.5 hPa | 1.2 hPa/3h | 0 W/m² | 3.2 km/h | SSW |
| 00:35 | 13.0 °C | 92 % | 11.7 °C | 0.0 mm | 0.0 mm/h | 1020.5 hPa | 1.2 hPa/3h | 0 W/m² | 3.2 km/h | SSW |
| 00:40 | 12.9 °C | 92 % | 11.7 °C | 0.0 mm | 0.0 mm/h | 1020.5 hPa | 1.2 hPa/3h | 0 W/m² | 1.6 km/h | SSW |
| 00:45 | 12.8 °C | 92 % | 11.6 °C | 0.0 mm | 0.0 mm/h | 1020.5 hPa | 1.2 hPa/3h | 0 W/m² | 0.0 km/h | --- |
| 00:50 | 12.8 °C | 93 % | 11.7 °C | 0.0 mm | 0.0 mm/h | 1020.4 hPa | 1.2 hPa/3h | 0 W/m² | 0.0 km/h | --- |
| 00:55 | 12.8 °C | 93 % | 11.7 °C | 0.0 mm | 0.0 mm/h | 1020.4 hPa | 1 hPa/3h | 0 W/m² | 0.0 km/h | --- |
| 01:00 | 12.7 °C | 93 % | 11.6 °C | 0.0 mm | 0.0 mm/h | 1020.5 hPa | 1 hPa/3h | 0 W/m² | 0.0 km/h | --- |
| 01:05 | 12.7 °C | 93 % | 11.6 °C | 0.0 mm | 0.0 mm/h | 1020.6 hPa | 0.9 hPa/3h | 0 W/m² | 0.0 km/h | --- |
| 01:10 | 12.7 °C | 94 % | 11.8 °C | 0.0 mm | 0.0 mm/h | 1020.6 hPa | 1.1 hPa/3h | 0 W/m² | 0.0 km/h | --- |
| 01:15 | 12.7 °C | 94 % | 11.7 °C | 0.0 mm | 0.0 mm/h | 1020.6 hPa | 1.1 hPa/3h | 0 W/m² | 0.0 km/h | --- |
| 01:20 | 12.7 °C | 94 % | 11.8 °C | 0.0 mm | 0.0 mm/h | 1020.6 hPa | 0.9 hPa/3h | 0 W/m² | 0.0 km/h | --- |
| 01:25 | 12.7 °C | 94 % | 11.8 °C | 0.0 mm | 0.0 mm/h | 1020.7 hPa | 0.9 hPa/3h | 0 W/m² | 0.0 km/h | --- |
| 01:30 | 12.7 °C | 94 % | 11.8 °C | 0.0 mm | 0.0 mm/h | 1020.6 hPa | 1 hPa/3h | 0 W/m² | 0.0 km/h | --- |
| 01:35 | 12.7 °C | 94 % | 11.7 °C | 0.0 mm | 0.0 mm/h | 1020.6 hPa | 0.9 hPa/3h | 0 W/m² | 0.0 km/h | --- |
| 01:40 | 12.7 °C | 94 % | 11.7 °C | 0.0 mm | 0.0 mm/h | 1020.8 hPa | 0.8 hPa/3h | 0 W/m² | 0.0 km/h | --- |
| 01:45 | 12.6 °C | 94 % | 11.7 °C | 0.0 mm | 0.0 mm/h | 1020.8 hPa | 1 hPa/3h | 0 W/m² | 0.0 km/h | --- |
| 01:50 | 12.6 °C | 94 % | 11.6 °C | 0.0 mm | 0.0 mm/h | 1020.7 hPa | 0.9 hPa/3h | 0 W/m² | 0.0 km/h | --- |
| 01:55 | 12.5 °C | 95 % | 11.7 °C | 0.0 mm | 0.0 mm/h | 1020.7 hPa | 0.8 hPa/3h | 0 W/m² | 0.0 km/h | --- |
| 02:00 | 12.4 °C | 95 % | 11.7 °C | 0.0 mm | 0.0 mm/h | 1020.8 hPa | 0.7 hPa/3h | 0 W/m² | 0.0 km/h | --- |
| 02:05 | 12.4 °C | 95 % | 11.6 °C | 0.0 mm | 0.0 mm/h | 1020.8 hPa | 0.8 hPa/3h | 0 W/m² | 0.0 km/h | --- |
| 02:10 | 12.4 °C | 95 % | 11.6 °C | 0.0 mm | 0.0 mm/h | 1020.9 hPa | 0.8 hPa/3h | 0 W/m² | 0.0 km/h | --- |
| 02:15 | 12.4 °C | 95 % | 11.7 °C | 0.0 mm | 0.0 mm/h | 1020.8 hPa | 0.8 hPa/3h | 0 W/m² | 1.6 km/h | SSW |
| 02:20 | 12.4 °C | 95 % | 11.6 °C | 0.0 mm | 0.0 mm/h | 1020.9 hPa | 0.7 hPa/3h | 0 W/m² | 0.0 km/h | --- |
| 02:25 | 12.4 °C | 95 % | 11.6 °C | 0.0 mm | 0.0 mm/h | 1020.7 hPa | 0.7 hPa/3h | 0 W/m² | 0.0 km/h | --- |
| 02:30 | 12.3 °C | 95 % | 11.6 °C | 0.0 mm | 0.0 mm/h | 1020.8 hPa | 0.5 hPa/3h | 0 W/m² | 1.6 km/h | SSW |
| 02:35 | 12.3 °C | 96 % | 11.7 °C | 0.0 mm | 0.0 mm/h | 1020.8 hPa | 0.6 hPa/3h | 0 W/m² | 0.0 km/h | --- |
| 02:40 | 12.3 °C | 96 % | 11.7 °C | 0.0 mm | 0.0 mm/h | 1020.7 hPa | 0.6 hPa/3h | 0 W/m² | 0.0 km/h | --- |
| 02:45 | 12.3 °C | 95 % | 11.6 °C | 0.0 mm | 0.0 mm/h | 1020.7 hPa | 0.5 hPa/3h | 0 W/m² | 0.0 km/h | --- |
| 02:50 | 12.3 °C | 96 % | 11.7 °C | 0.0 mm | 0.0 mm/h | 1020.7 hPa | 0.4 hPa/3h | 0 W/m² | 0.0 km/h | --- |
| 02:55 | 12.3 °C | 96 % | 11.7 °C | 0.0 mm | 0.0 mm/h | 1020.8 hPa | hPa/3h | 0 W/m² | 0.0 km/h | --- |
| 03:00 | 12.2 °C | 95 % | 11.4 °C | 0.0 mm | 0.0 mm/h | 1020.8 hPa | 0.5 hPa/3h | 0 W/m² | 0.0 km/h | --- |
| 03:05 | 12.2 °C | 96 % | 11.5 °C | 0.0 mm | 0.0 mm/h | 1020.8 hPa | 0.5 hPa/3h | 0 W/m² | 0.0 km/h | --- |
| 03:10 | 12.1 °C | 95 % | 11.3 °C | 0.0 mm | 0.0 mm/h | 1020.8 hPa | 0.5 hPa/3h | 0 W/m² | 0.0 km/h | --- |
| 03:15 | 12.0 °C | 96 % | 11.4 °C | 0.0 mm | 0.0 mm/h | 1020.8 hPa | 0.5 hPa/3h | 0 W/m² | 0.0 km/h | --- |
| 03:20 | 12.0 °C | 96 % | 11.4 °C | 0.0 mm | 0.0 mm/h | 1020.9 hPa | hPa/3h | 0 W/m² | 1.6 km/h | SSW |
| 03:25 | 12.0 °C | 96 % | 11.4 °C | 0.0 mm | 0.0 mm/h | 1021 hPa | 0.4 hPa/3h | 0 W/m² | 3.2 km/h | SSW |
| 03:30 | 11.9 °C | 96 % | 11.3 °C | 0.0 mm | 0.0 mm/h | 1021 hPa | 0.6 hPa/3h | 0 W/m² | 0.0 km/h | --- |
| 03:35 | 11.9 °C | 96 % | 11.3 °C | 0.0 mm | 0.0 mm/h | 1021 hPa | 0.5 hPa/3h | 0 W/m² | 0.0 km/h | --- |
| 03:40 | 11.9 °C | 96 % | 11.3 °C | 0.0 mm | 0.0 mm/h | 1021 hPa | 0.5 hPa/3h | 0 W/m² | 0.0 km/h | --- |
| 03:45 | 11.9 °C | 96 % | 11.3 °C | 0.0 mm | 0.0 mm/h | 1021.1 hPa | 0.5 hPa/3h | 0 W/m² | 1.6 km/h | SSW |
| 03:50 | 11.9 °C | 96 % | 11.3 °C | 0.0 mm | 0.0 mm/h | 1021.1 hPa | 0.6 hPa/3h | 0 W/m² | 0.0 km/h | --- |
| 03:55 | 11.8 °C | 96 % | 11.2 °C | 0.0 mm | 0.0 mm/h | 1021.1 hPa | 0.7 hPa/3h | 0 W/m² | 1.6 km/h | SSW |
| 04:00 | 11.7 °C | 96 % | 11.1 °C | 0.0 mm | 0.0 mm/h | 1021.1 hPa | 0.7 hPa/3h | 0 W/m² | 0.0 km/h | --- |
| 04:05 | 11.7 °C | 96 % | 11.1 °C | 0.0 mm | 0.0 mm/h | 1021.1 hPa | 0.6 hPa/3h | 0 W/m² | 0.0 km/h | --- |
| 04:10 | 11.6 °C | 96 % | 10.9 °C | 0.0 mm | 0.0 mm/h | 1021.2 hPa | 0.5 hPa/3h | 0 W/m² | 0.0 km/h | --- |
| 04:15 | 11.6 °C | 96 % | 11.0 °C | 0.0 mm | 0.0 mm/h | 1021.2 hPa | 0.6 hPa/3h | 0 W/m² | 1.6 km/h | SSW |
| 04:20 | 11.6 °C | 96 % | 10.9 °C | 0.0 mm | 0.0 mm/h | 1021.2 hPa | 0.6 hPa/3h | 0 W/m² | 3.2 km/h | SSW |
| 04:25 | 11.5 °C | 96 % | 10.9 °C | 0.0 mm | 0.0 mm/h | 1021.1 hPa | 0.6 hPa/3h | 0 W/m² | 3.2 km/h | SSW |
| 04:30 | 11.4 °C | 96 % | 10.8 °C | 0.0 mm | 0.0 mm/h | 1021.1 hPa | 0.4 hPa/3h | 0 W/m² | 0.0 km/h | --- |
| 04:35 | 11.4 °C | 96 % | 10.8 °C | 0.0 mm | 0.0 mm/h | 1021.1 hPa | 0.5 hPa/3h | 0 W/m² | 0.0 km/h | --- |
| 04:40 | 11.3 °C | 96 % | 10.7 °C | 0.0 mm | 0.0 mm/h | 1021.1 hPa | 0.5 hPa/3h | 0 W/m² | 0.0 km/h | --- |
| 04:45 | 11.3 °C | 97 % | 10.9 °C | 0.0 mm | 0.0 mm/h | 1021.2 hPa | hPa/3h | 0 W/m² | 0.0 km/h | --- |
| 04:50 | 11.3 °C | 97 % | 10.9 °C | 0.0 mm | 0.0 mm/h | 1021.2 hPa | 0.4 hPa/3h | 0 W/m² | 0.0 km/h | --- |
| 04:55 | 11.3 °C | 97 % | 10.9 °C | 0.0 mm | 0.0 mm/h | 1021.1 hPa | 0.5 hPa/3h | 0 W/m² | 0.0 km/h | --- |
| 05:00 | 11.4 °C | 97 % | 10.9 °C | 0.0 mm | 0.0 mm/h | 1021.2 hPa | 0.4 hPa/3h | 0 W/m² | 0.0 km/h | --- |
| 05:05 | 11.3 °C | 97 % | 10.8 °C | 0.0 mm | 0.0 mm/h | 1021.1 hPa | 0.4 hPa/3h | 0 W/m² | 0.0 km/h | --- |
| 05:10 | 11.2 °C | 97 % | 10.8 °C | 0.0 mm | 0.0 mm/h | 1021.2 hPa | hPa/3h | 0 W/m² | 0.0 km/h | --- |
| 05:15 | 11.3 °C | 97 % | 10.8 °C | 0.0 mm | 0.0 mm/h | 1021.2 hPa | hPa/3h | 0 W/m² | 0.0 km/h | --- |
| 05:20 | 11.2 °C | 97 % | 10.8 °C | 0.0 mm | 0.0 mm/h | 1021.2 hPa | 0.4 hPa/3h | 0 W/m² | 0.0 km/h | --- |
| 05:25 | 11.2 °C | 97 % | 10.8 °C | 0.0 mm | 0.0 mm/h | 1021.2 hPa | hPa/3h | 0 W/m² | 0.0 km/h | --- |
| 05:30 | 11.1 °C | 97 % | 10.7 °C | 0.0 mm | 0.0 mm/h | 1021.2 hPa | 0.5 hPa/3h | 0 W/m² | 0.0 km/h | --- |
| 05:35 | 11.1 °C | 97 % | 10.7 °C | 0.0 mm | 0.0 mm/h | 1021.2 hPa | 0.4 hPa/3h | 0 W/m² | 0.0 km/h | --- |
| 05:40 | 11.1 °C | 97 % | 10.6 °C | 0.0 mm | 0.0 mm/h | 1021.2 hPa | 0.4 hPa/3h | 0 W/m² | 0.0 km/h | --- |
| 05:45 | 11.1 °C | 97 % | 10.6 °C | 0.0 mm | 0.0 mm/h | 1021.2 hPa | 0.5 hPa/3h | 0 W/m² | 0.0 km/h | --- |
| 05:50 | 11.1 °C | 97 % | 10.6 °C | 0.0 mm | 0.0 mm/h | 1021.3 hPa | 0.5 hPa/3h | 0 W/m² | 0.0 km/h | --- |
| 05:55 | 11.1 °C | 97 % | 10.6 °C | 0.0 mm | 0.0 mm/h | 1021.3 hPa | 0.6 hPa/3h | 0 W/m² | 0.0 km/h | --- |
| 06:00 | 11.1 °C | 97 % | 10.6 °C | 0.0 mm | 0.0 mm/h | 1021.3 hPa | 0.5 hPa/3h | 0 W/m² | 0.0 km/h | --- |
| 06:05 | 11.0 °C | 97 % | 10.5 °C | 0.0 mm | 0.0 mm/h | 1021.4 hPa | 0.5 hPa/3h | 0 W/m² | 0.0 km/h | --- |
| 06:10 | 10.9 °C | 97 % | 10.5 °C | 0.0 mm | 0.0 mm/h | 1021.3 hPa | 0.6 hPa/3h | 0 W/m² | 0.0 km/h | --- |
| 06:15 | 10.9 °C | 97 % | 10.5 °C | 0.0 mm | 0.0 mm/h | 1021.4 hPa | 0.5 hPa/3h | 0 W/m² | 0.0 km/h | --- |
| 06:20 | 10.9 °C | 97 % | 10.5 °C | 0.0 mm | 0.0 mm/h | 1021.5 hPa | 0.6 hPa/3h | 0 W/m² | 0.0 km/h | --- |
| 06:25 | 10.9 °C | 97 % | °C | 0.0 mm | 0.0 mm/h | 1021.4 hPa | 0.6 hPa/3h | 0 W/m² | 0.0 km/h | --- |
| 06:30 | 10.9 °C | 97 % | °C | 0.0 mm | 0.0 mm/h | 1021.5 hPa | 0.4 hPa/3h | 0 W/m² | 0.0 km/h | --- |
| 06:35 | °C | 97 % | °C | 0.0 mm | 0.0 mm/h | 1021.6 hPa | 0.5 hPa/3h | 0 W/m² | 0.0 km/h | --- |
| 06:40 | 10.9 °C | 97 % | °C | 0.0 mm | 0.0 mm/h | 1021.6 hPa | 0.6 hPa/3h | 0 W/m² | 0.0 km/h | --- |
| 06:45 | 11.0 °C | % | 10.7 °C | 0.0 mm | 0.0 mm/h | 1021.6 hPa | 0.6 hPa/3h | 0 W/m² | 0.0 km/h | --- |
| 06:50 | 11.0 °C | % | 10.7 °C | 0.0 mm | 0.0 mm/h | 1021.7 hPa | 0.5 hPa/3h | 0 W/m² | 0.0 km/h | --- |
| 06:55 | 11.0 °C | % | 10.7 °C | 0.0 mm | 0.0 mm/h | 1021.7 hPa | 0.6 hPa/3h | 0 W/m² | 0.0 km/h | --- |
| 07:00 | 11.0 °C | % | 10.7 °C | 0.0 mm | 0.0 mm/h | 1021.7 hPa | 0.6 hPa/3h | 9 W/m² | 1.6 km/h | S |
| 07:05 | 11.0 °C | % | 10.7 °C | 0.0 mm | 0.0 mm/h | 1021.7 hPa | 0.6 hPa/3h | 22 W/m² | 0.0 km/h | --- |
| 07:10 | 11.1 °C | % | 10.8 °C | 0.0 mm | 0.0 mm/h | 1021.7 hPa | 0.6 hPa/3h | 26 W/m² | 0.0 km/h | --- |
| 07:15 | 11.2 °C | % | 10.9 °C | 0.0 mm | 0.0 mm/h | 1021.7 hPa | 0.5 hPa/3h | 27 W/m² | 0.0 km/h | --- |
| 07:20 | 11.3 °C | % | 11.0 °C | 0.0 mm | 0.0 mm/h | 1021.7 hPa | 0.5 hPa/3h | 28 W/m² | 0.0 km/h | --- |
| 07:25 | 11.4 °C | % | 11.1 °C | 0.0 mm | 0.0 mm/h | hPa | 0.5 hPa/3h | 32 W/m² | 0.0 km/h | --- |
| 07:30 | 11.5 °C | % | 11.2 °C | 0.0 mm | 0.0 mm/h | 1021.7 hPa | 0.7 hPa/3h | 35 W/m² | 0.0 km/h | --- |
| 07:35 | 11.6 °C | % | 11.3 °C | 0.0 mm | 0.0 mm/h | 1021.6 hPa | 0.6 hPa/3h | W/m² | 0.0 km/h | --- |